[[{"header":{"parameterUnit":"m.s-1","parameterCategory":1,"la1":30.2991,"la2":30.254,"lo1":-89.0895,"lo2":-89.0444,"dy":0.0017,"dx":0.0017,"nx":28,"ny":28,"refTime":"2024-04-25T03:00:00:Z","depth":0,"parameterNumber":2,"parameterNumberName":"U-component_of_WINDS"},"data":[0,0,0,0,0,0,0,0,0,0,0,0,0,0,0,0,0,0,0,0,0,0,0,0,0,0,0,0,0,0,0,0,0,0,0,0,0,0,0,0,0,0,0,0,0,0,0,0,0,0,0,0,0,0,0,0,0,0,-0.2629,-0.2627,0,-0.2496,-0.2494,-0.2493,-0.242,-0.242,-0.242,-0.242,-0.2283,-0.228,-0.2276,0,0,0,0,0,0,0,0,0,0,0,0,0,-0.282,-0.2817,-0.2629,-0.2627,-0.2625,-0.2496,-0.2494,-0.2492,-0.242,-0.242,-0.242,-0.2419,-0.2284,-0.228,-0.2276,0,0,0,0,0,0,0,0,0,0,0,0,0,-0.2717,-0.2816,-0.2629,-0.2574,-0.2567,-0.2496,-0.2494,-0.2492,-0.242,-0.242,-0.242,-0.2419,-0.2286,-0.2281,-0.2275,-0.2249,0,0,-0.226,-0.2257,0,0,0,0,0,0,0,0,-0.2723,-0.271,-0.2583,-0.2577,-0.257,-0.2474,-0.2512,-0.241,-0.242,-0.2476,-0.242,-0.2419,-0.2347,-0.2337,-0.2312,-0.2242,-0.2237,-0.2259,-0.2256,-0.2254,-0.2252,0,0,0,0,0,0,0,-0.273,-0.2716,-0.2576,-0.2582,-0.2574,-0.2556,-0.2541,-0.2492,-0.2415,-0.2471,-0.2466,-0.2451,-0.2343,-0.2317,-0.2309,-0.2235,-0.2259,-0.2255,-0.2251,-0.2249,-0.2137,-0.2137,0,0,0,0,0,0,-0.2746,-0.2722,-0.258,-0.2572,-0.2648,-0.2553,-0.2536,-0.2505,-0.2415,-0.2401,-0.2451,-0.2448,-0.2326,-0.2315,-0.2303,-0.2267,-0.2254,-0.2249,-0.2246,-0.2137,-0.2137,-0.2137,0,0,0,0,0,0,-0.2751,-0.2734,-0.2586,-0.2645,-0.2625,-0.2549,-0.2516,-0.2503,-0.2477,-0.24,-0.2386,-0.2439,-0.2326,-0.2311,-0.2263,-0.2261,-0.2247,-0.2242,-0.2137,-0.2137,-0.2137,-0.2194,0,0,0,0,0,0,-0.2757,-0.2736,-0.2726,-0.2646,-0.2622,-0.2548,-0.2516,-0.25,-0.2468,-0.2463,-0.2385,-0.2372,-0.2324,-0.2271,-0.2258,-0.2254,-0.2238,-0.2137,-0.2137,-0.2137,-0.2192,-0.2196,-0.2199,0,0,0,0,0,-0.2764,-0.2747,-0.2725,-0.2709,-0.2607,-0.2548,-0.2534,-0.248,-0.2468,-0.2457,-0.2407,-0.2374,-0.2264,-0.2267,-0.2251,-0.2246,-0.2136,-0.2137,-0.2137,-0.219,-0.2195,-0.2199,0,0,0,0,0,0,-0.2828,-0.2735,-0.2711,-0.2667,-0.2616,-0.2536,-0.2519,-0.2487,-0.2438,-0.2435,-0.237,-0.2353,-0.2312,-0.2274,-0.2279,-0.2216,-0.2196,-0.2194,-0.2242,-0.2246,-0.225,-0.226,-0.2233,0,0,0,0,0,-0.2837,-0.2797,-0.2718,-0.2687,-0.2663,-0.2596,-0.2568,-0.2531,-0.2475,-0.2453,-0.24,-0.2347,-0.2301,-0.2271,-0.2224,-0.2186,-0.2168,-0.2174,-0.2178,-0.2181,-0.218,-0.2158,-0.216,-0.2138,-0.2138,-0.2138,0,0,-0.2856,-0.28,-0.2778,-0.2699,-0.2654,-0.2614,-0.2578,-0.2537,-0.2506,-0.2447,-0.2399,-0.2358,-0.2295,-0.2252,-0.2231,-0.2219,-0.2182,-0.2182,-0.2185,-0.2182,-0.2158,-0.216,-0.2162,-0.2138,-0.2138,-0.2138,0,0,-0.2869,-0.2822,-0.2792,-0.2749,-0.2683,-0.2638,-0.2631,-0.2556,-0.2527,-0.2477,-0.2432,-0.2395,-0.2316,-0.2273,-0.2241,-0.2238,-0.2206,-0.2225,-0.2245,-0.2224,-0.2226,-0.2227,-0.2227,-0.2227,-0.2223,-0.2223,-0.2223,0,-0.29,-0.2838,-0.278,-0.2742,-0.2709,-0.2653,-0.2622,-0.2583,-0.2505,-0.2483,-0.2471,-0.2371,-0.2324,-0.2271,-0.2271,-0.2246,-0.2237,-0.2233,-0.223,-0.2231,-0.2231,-0.223,-0.223,-0.2226,-0.2226,-0.2226,-0.2225,0,-0.288,-0.2837,-0.2821,-0.2747,-0.2712,-0.2677,-0.2615,-0.2586,-0.2552,-0.251,-0.2461,-0.2403,-0.2343,-0.2328,-0.2294,-0.227,-0.2265,-0.2242,-0.2222,-0.2237,-0.2235,-0.2234,-0.223,-0.2229,-0.2228,-0.2228,0,0,-0.293,-0.2825,-0.282,-0.2787,-0.271,-0.2676,-0.2639,-0.2581,-0.2558,-0.2506,-0.2474,-0.2408,-0.2387,-0.2351,-0.2312,-0.2293,-0.2296,-0.2273,-0.227,-0.228,-0.2267,-0.2285,-0.2285,-0.2274,-0.2274,-0.2274,-0.2272,0,-0.2933,-0.2864,-0.2812,-0.2763,-0.2724,-0.267,-0.2638,-0.2588,-0.2547,-0.2507,-0.2462,-0.2417,-0.2392,-0.237,-0.2349,-0.23,-0.2293,-0.23,-0.2244,-0.2243,-0.2262,-0.2284,-0.2303,-0.2304,-0.2271,-0.2271,-0.2271,0,-0.2927,-0.2877,-0.2825,-0.2753,-0.2734,-0.2707,-0.2649,-0.2612,-0.2554,-0.2525,-0.2485,-0.2445,-0.2404,-0.2388,-0.2331,-0.2336,-0.231,-0.2283,-0.2282,-0.2275,-0.2258,-0.2279,-0.2303,-0.2304,-0.2269,-0.2269,-0.2269,0,-0.297,-0.289,-0.2848,-0.2821,-0.2735,-0.2717,-0.2681,-0.2622,-0.2591,-0.2541,-0.252,-0.2466,-0.2437,-0.2396,-0.2342,-0.2335,-0.2291,-0.227,-0.2267,-0.2268,-0.226,-0.2262,-0.2282,-0.2243,-0.2243,-0.2243,-0.2243,0,-0.2979,-0.2949,-0.2867,-0.2841,-0.2806,-0.2746,-0.2714,-0.2673,-0.2621,-0.2587,-0.2537,-0.2507,-0.2437,-0.2398,-0.2356,-0.2315,-0.2302,-0.2278,-0.2267,-0.2283,-0.2286,-0.2266,-0.2264,-0.2243,-0.2243,-0.2243,-0.2243,0,-0.3021,-0.2965,-0.2916,-0.2839,-0.2819,-0.2797,-0.2731,-0.2705,-0.2661,-0.2619,-0.2605,-0.2537,-0.2488,-0.243,-0.2363,-0.2334,-0.2298,-0.2281,-0.2318,-0.2312,-0.2312,-0.2313,-0.2321,-0.2319,-0.2281,-0.2281,-0.2281,0,-0.3031,-0.3007,-0.2928,-0.2902,-0.2867,-0.2825,-0.2792,-0.2733,-0.2701,-0.2634,-0.2615,-0.2563,-0.2518,-0.2442,-0.2387,-0.2335,-0.2317,-0.2323,-0.2309,-0.2326,-0.2318,-0.2321,-0.2318,-0.2327,-0.2328,-0.2329,-0.2329,0,-0.3055,-0.3028,-0.2984,-0.293,-0.2893,-0.2848,-0.28,-0.2781,-0.2712,-0.2679,-0.2629,-0.2594,-0.2525,-0.2474,-0.2415,-0.2377,-0.2342,-0.2334,-0.2331,-0.2347,-0.2369,-0.2358,-0.2329,-0.2334,-0.2334,-0.2333,-0.2333,-0.2333,-0.3082,-0.3058,-0.2999,-0.2951,-0.2909,-0.2866,-0.2838,-0.2791,-0.2748,-0.2687,-0.2654,-0.2605,-0.2548,-0.2465,-0.2429,-0.2389,-0.2377,-0.2372,-0.2371,-0.2371,-0.2376,-0.2375,-0.2378,-0.2378,-0.2378,-0.2378,-0.2377,0,-0.3104,-0.3063,-0.302,-0.2955,-0.2918,-0.2888,-0.2834,-0.2805,-0.2762,-0.2711,-0.2668,-0.2611,-0.2561,-0.2501,-0.2448,-0.2428,-0.241,-0.2416,-0.2417,-0.2409,-0.2389,-0.2398,-0.2431,-0.2431,-0.2431,-0.2431,-0.2431,-0.2431,-0.3111,-0.307,-0.3036,-0.2974,-0.2933,-0.2885,-0.2856,-0.2817,-0.2776,-0.2714,-0.2673,-0.2634,-0.258,-0.2522,-0.2475,-0.2459,-0.2442,-0.2452,-0.2432,-0.2415,-0.241,-0.2406,-0.2414,-0.2449,-0.2449,-0.2454,-0.2454,-0.2454]},{"header":{"parameterUnit":"m.s-1","parameterCategory":1,"la1":30.2991,"la2":30.254,"lo1":-89.0895,"lo2":-89.0444,"dy":0.0017,"dx":0.0017,"nx":28,"ny":28,"refTime":"2024-04-25T03:00:00:Z","depth":0,"parameterNumber":3,"parameterNumberName":"V-component_of_WINDS"},"data":[0,0,0,0,0,0,0,0,0,0,0,0,0,0,0,0,0,0,0,0,0,0,0,0,0,0,0,0,0,0,0,0,0,0,0,0,0,0,0,0,0,0,0,0,0,0,0,0,0,0,0,0,0,0,0,0,0,0,4.1187,4.1187,0,4.1144,4.1143,4.1143,4.1093,4.1092,4.1091,4.109,4.1042,4.1042,4.1041,0,0,0,0,0,0,0,0,0,0,0,0,0,4.1225,4.1225,4.1187,4.1187,4.1186,4.1144,4.1143,4.1142,4.1093,4.1092,4.1091,4.109,4.1043,4.1042,4.1041,0,0,0,0,0,0,0,0,0,0,0,0,0,4.1198,4.1225,4.1187,4.1156,4.1153,4.1144,4.1143,4.1142,4.1093,4.1092,4.1091,4.109,4.1043,4.1042,4.1041,4.1058,0,0,4.1038,4.1038,0,0,0,0,0,0,0,0,4.1199,4.1196,4.1161,4.1158,4.1155,4.1122,4.1139,4.1114,4.1093,4.1116,4.109,4.1089,4.107,4.1067,4.1061,4.1056,4.1053,4.1038,4.1038,4.1037,4.1037,0,0,0,0,0,0,0,4.1201,4.1198,4.117,4.1161,4.1157,4.1144,4.1139,4.1134,4.1099,4.1114,4.111,4.1106,4.1068,4.1062,4.1059,4.1053,4.1038,4.1038,4.1037,4.1037,4.1059,4.106,0,0,0,0,0,0,4.1208,4.12,4.1171,4.1169,4.1175,4.1144,4.1138,4.1134,4.1099,4.1093,4.1107,4.1103,4.1064,4.106,4.1057,4.1075,4.1037,4.1037,4.1036,4.1058,4.1059,4.1061,0,0,0,0,0,0,4.1209,4.1206,4.1173,4.1183,4.1178,4.1145,4.114,4.1134,4.1128,4.1094,4.1087,4.1107,4.1063,4.1059,4.1058,4.1072,4.1036,4.1035,4.1057,4.1058,4.106,4.1109,0,0,0,0,0,0,4.1211,4.1207,4.1213,4.1184,4.1178,4.1176,4.1141,4.1134,4.1127,4.1122,4.1093,4.1087,4.1062,4.106,4.1057,4.107,4.1035,4.1055,4.1057,4.1059,4.1106,4.1112,4.1118,0,0,0,0,0,4.1212,4.1228,4.1214,4.1211,4.1185,4.1177,4.1173,4.1145,4.1128,4.1134,4.1112,4.1088,4.1071,4.106,4.1057,4.107,4.1054,4.1057,4.1059,4.1104,4.1111,4.1118,0,0,0,0,0,0,4.1259,4.1224,4.1208,4.1215,4.1199,4.1168,4.1175,4.1154,4.1142,4.1138,4.1102,4.1096,4.11,4.1085,4.1073,4.1084,4.1059,4.1061,4.1094,4.1101,4.1107,4.111,4.1034,0,0,0,0,0,4.1271,4.1267,4.1236,4.1246,4.1239,4.1208,4.1203,4.1183,4.1165,4.1158,4.1136,4.1119,4.111,4.1105,4.1094,4.1104,4.1097,4.1111,4.1117,4.1122,4.1124,4.1128,4.1134,4.1069,4.1069,4.1069,0,0,4.1294,4.1274,4.1274,4.1255,4.124,4.1237,4.1203,4.1201,4.1198,4.1157,4.1156,4.114,4.1118,4.1123,4.1124,4.111,4.114,4.1125,4.1129,4.1129,4.1131,4.1137,4.1143,4.1071,4.107,4.107,0,0,4.1334,4.1319,4.1325,4.1312,4.1291,4.1271,4.1273,4.1245,4.1233,4.1231,4.1201,4.1196,4.1182,4.1168,4.1158,4.1195,4.1171,4.1192,4.1222,4.1226,4.1232,4.1236,4.1249,4.1254,4.1194,4.1195,4.1195,0,4.1365,4.136,4.1331,4.1331,4.1323,4.1288,4.1294,4.1282,4.1258,4.1253,4.1239,4.122,4.1203,4.1204,4.1213,4.1207,4.1207,4.1195,4.1233,4.1237,4.1241,4.1253,4.1258,4.1197,4.1197,4.1197,4.1196,0,4.1399,4.1396,4.1403,4.1383,4.1376,4.1379,4.135,4.1346,4.1327,4.1308,4.1307,4.1285,4.127,4.1269,4.125,4.1268,4.126,4.124,4.1214,4.125,4.1261,4.1265,4.1201,4.12,4.1199,4.1199,0,0,4.1467,4.1432,4.1435,4.1425,4.14,4.1396,4.1398,4.1384,4.1382,4.1367,4.1366,4.1355,4.1337,4.1327,4.1305,4.1309,4.1339,4.1289,4.1287,4.1299,4.1358,4.1373,4.1379,4.1324,4.1325,4.1325,4.136,0,4.1503,4.1504,4.1478,4.1486,4.1482,4.1449,4.145,4.1434,4.1417,4.1411,4.1391,4.1384,4.136,4.1354,4.1357,4.1335,4.1351,4.1332,4.1323,4.1323,4.1329,4.1384,4.14,4.1433,4.1363,4.1364,4.1365,0,4.1544,4.1533,4.1541,4.1516,4.1513,4.1515,4.1501,4.1496,4.1477,4.1464,4.1454,4.143,4.1428,4.1404,4.1402,4.139,4.1385,4.1374,4.1374,4.1372,4.1346,4.1383,4.1443,4.1448,4.1371,4.137,4.137,0,4.1593,4.158,4.1583,4.1576,4.1546,4.1548,4.1536,4.1517,4.151,4.1498,4.1493,4.148,4.1473,4.1463,4.1436,4.1421,4.1437,4.141,4.1425,4.1426,4.143,4.143,4.1489,4.1427,4.1427,4.1427,4.1427,0,4.1635,4.1641,4.1604,4.1606,4.1612,4.1582,4.1588,4.1573,4.1556,4.1554,4.1524,4.1522,4.1487,4.1481,4.146,4.1461,4.1458,4.1447,4.1441,4.1449,4.1451,4.1445,4.1442,4.1428,4.1428,4.1427,4.1427,0,4.169,4.1666,4.1667,4.164,4.1633,4.1639,4.1615,4.1615,4.1596,4.1594,4.1592,4.1562,4.1553,4.1526,4.151,4.1496,4.1504,4.1493,4.151,4.1507,4.1523,4.1522,4.1581,4.1587,4.1521,4.1522,4.1522,0,4.1719,4.1723,4.1696,4.1693,4.1683,4.1678,4.1672,4.1643,4.1637,4.1617,4.162,4.1609,4.1599,4.1588,4.1564,4.1552,4.154,4.1562,4.1538,4.1547,4.154,4.154,4.1541,4.1567,4.1568,4.1568,4.1569,0,4.1771,4.176,4.1752,4.1741,4.1735,4.1725,4.1712,4.1711,4.1679,4.1674,4.1666,4.1659,4.1644,4.1633,4.1618,4.1604,4.1581,4.1577,4.158,4.1588,4.1598,4.1593,4.1524,4.1575,4.1575,4.1574,4.1574,4.1574,4.1814,4.1816,4.1798,4.1791,4.1779,4.1769,4.1768,4.175,4.1743,4.1729,4.1712,4.1706,4.1687,4.1664,4.1652,4.1646,4.1634,4.1638,4.1639,4.164,4.1644,4.1599,4.1643,4.1643,4.1643,4.1643,4.1643,0,4.1865,4.1852,4.1846,4.1831,4.1825,4.1806,4.1791,4.1787,4.1783,4.1768,4.1759,4.175,4.174,4.1717,4.1704,4.1704,4.1693,4.1702,4.1701,4.1699,4.1656,4.1655,4.1711,4.1711,4.1711,4.1711,4.1711,4.1711,4.1891,4.1894,4.188,4.1876,4.1863,4.1858,4.1851,4.1841,4.1829,4.1821,4.1813,4.1798,4.1779,4.1766,4.1756,4.1749,4.1746,4.1758,4.1748,4.1708,4.1702,4.1695,4.1694,4.1757,4.1757,4.179,4.1791,4.1791]}]]